Wayne, NE

2:36 AM CDT on April 22, 2018 (GMT -0500)
Wayne Municipal

Weather History for KLCG - September, 2013

Change the Weather History Date:

Sunday, September 22, 2013

  Actual Average (KOFK) Record (KOFK)
Temperature  
Mean Temperature 69 °F -  
Max Temperature 84 °F 69 °F 96 °F (1940)
Min Temperature 54 °F 45 °F 26 °F (1995)
Cooling Degree Days 4    
Growing Degree Days 19 (Base 50)    
Moisture  
Dew Point 48 °F    
Average Humidity 54    
Maximum Humidity 91    
Minimum Humidity 23    
Precipitation  
Precipitation 0.00 in - - ()
Sea Level Pressure  
Sea Level Pressure 29.80 in    
Wind  
Wind Speed 11 mph (South)    
Max Wind Speed 25 mph    
Max Gust Speed 32 mph    
Visibility 10 miles    
Events      
Averages and records for this station are not official NWS values.
T = Trace of Precipitation, MM = Missing Value Source: NWS Daily Summary

Daily Weather History Graph

Daily Weather History Graph

Search for Another Location

Airport or City:

Astronomy

Sep. 22, 2013 Rise Set
Actual Time 7:15 AM CDT 7:24 PM CDT
Civil Twilight 6:47 AM CDT 7:52 PM CDT
Nautical Twilight 6:14 AM CDT 8:25 PM CDT
Astronomical Twilight 5:41 AM CDT 8:58 PM CDT
Moon 9:10 PM CDT 10:41 AM CDT
Length of Visible Light 13h 05m
Length of Day
12h 09m
Waning Gibbous, 88% of the Moon is Illuminated
Sep 22
Waning Gibbous
Sep 26
Last Quarter
Oct 4
New
Oct 11
First Quarter
Oct 18
Full

Hourly Weather History & Observations

Time (CDT) Temp. Dew Point Humidity Pressure Visibility Wind Dir Wind Speed Gust Speed Precip Events Conditions
12:15 AM 61.0 °F 50.4 °F 68% 29.84 in 10.0 mi SSE 11.5 mph - N/A   Clear
12:35 AM 60.8 °F 50.7 °F 69% 29.84 in 10.0 mi SSE 11.5 mph - N/A   Clear
12:55 AM 59.9 °F 51.3 °F 73% 29.84 in 10.0 mi SSE 10.4 mph - N/A   Clear
1:15 AM 59.2 °F 52.0 °F 77% 29.84 in 10.0 mi SSE 9.2 mph - N/A   Clear
1:35 AM 59.0 °F 52.2 °F 78% 29.84 in 10.0 mi South 9.2 mph - N/A   Clear
1:55 AM 58.1 °F 52.3 °F 81% 29.84 in 10.0 mi SSE 6.9 mph - N/A   Clear
2:15 AM 57.9 °F 52.3 °F 82% 29.84 in 10.0 mi South 5.8 mph - N/A   Clear
2:35 AM 57.2 °F 52.2 °F 83% 29.84 in 10.0 mi South 3.5 mph - N/A   Clear
2:55 AM 56.3 °F 52.3 °F 87% 29.84 in 10.0 mi South 5.8 mph - N/A   Clear
3:15 AM 56.5 °F 52.3 °F 86% 29.84 in 10.0 mi SSW 4.6 mph - N/A   Clear
3:35 AM 55.8 °F 52.2 °F 88% 29.84 in 10.0 mi Calm Calm - N/A   Clear
3:55 AM 55.8 °F 52.3 °F 88% 29.84 in 10.0 mi Calm Calm - N/A   Clear
4:15 AM 55.4 °F 52.0 °F 88% 29.84 in 10.0 mi Calm Calm - N/A   Clear
4:35 AM 54.7 °F 52.2 °F 91% 29.83 in 10.0 mi South 3.5 mph - N/A   Clear
4:55 AM 55.0 °F 52.0 °F 89% 29.83 in 10.0 mi Calm Calm - N/A   Clear
5:15 AM 54.3 °F 51.6 °F 91% 29.83 in 10.0 mi Calm Calm - N/A   Clear
5:35 AM 54.1 °F 51.6 °F 91% 29.83 in 10.0 mi Calm Calm - N/A   Clear
5:55 AM 54.7 °F 52.2 °F 91% 29.83 in 10.0 mi South 3.5 mph - N/A   Clear
6:15 AM 55.6 °F 52.3 °F 89% 29.83 in 10.0 mi SSW 3.5 mph - N/A   Clear
6:35 AM 55.0 °F 51.8 °F 89% 29.84 in 10.0 mi Calm Calm - N/A   Clear
6:55 AM 54.7 °F 51.6 °F 89% 29.84 in 10.0 mi SSW 3.5 mph - N/A   Clear
7:15 AM 54.3 °F 51.4 °F 90% 29.84 in 10.0 mi SW 3.5 mph - N/A   Clear
7:35 AM 54.5 °F 51.4 °F 89% 29.84 in 10.0 mi SSW 3.5 mph - N/A   Clear
7:55 AM 55.2 °F 52.0 °F 89% 29.84 in 10.0 mi SSW 4.6 mph - N/A   Clear
8:15 AM 57.4 °F 52.7 °F 84% 29.84 in 10.0 mi SSW 3.5 mph - N/A   Clear
8:35 AM 60.4 °F 52.7 °F 76% 29.84 in 10.0 mi South 6.9 mph - N/A   Clear
8:55 AM 62.8 °F 52.9 °F 70% 29.84 in 10.0 mi South 10.4 mph - N/A   Clear
9:15 AM 65.5 °F 52.9 °F 64% 29.84 in 10.0 mi South 12.7 mph 17.3 mph N/A   Clear
9:35 AM 68.4 °F 52.2 °F 56% 29.84 in 10.0 mi South 12.7 mph - N/A   Clear
9:55 AM 70.9 °F 50.0 °F 48% 29.84 in 10.0 mi South 16.1 mph 20.7 mph N/A   Clear
10:15 AM 73.0 °F 48.4 °F 42% 29.85 in 10.0 mi South 16.1 mph 23.0 mph N/A   Clear
10:35 AM 75.2 °F 47.7 °F 38% 29.84 in 10.0 mi SSW 20.7 mph 27.6 mph N/A   Clear
10:55 AM 76.3 °F 46.9 °F 35% 29.84 in 10.0 mi South 20.7 mph 26.5 mph N/A   Clear
11:15 AM 77.4 °F 46.9 °F 34% 29.84 in 10.0 mi South 19.6 mph 28.8 mph N/A   Clear
11:35 AM 79.2 °F 45.9 °F 31% 29.83 in 10.0 mi South 19.6 mph 25.3 mph N/A   Clear
11:55 AM 79.7 °F 45.0 °F 29% 29.83 in 10.0 mi South 23.0 mph 27.6 mph N/A   Clear
12:15 PM 80.2 °F 44.6 °F 28% 29.82 in 10.0 mi South 20.7 mph 27.6 mph N/A   Clear
12:35 PM 81.5 °F 44.8 °F 27% 29.81 in 10.0 mi South 19.6 mph 23.0 mph N/A   Clear
12:55 PM 81.7 °F 43.2 °F 26% 29.81 in 10.0 mi South 23.0 mph 29.9 mph N/A   Clear
1:15 PM 82.6 °F 43.5 °F 25% 29.80 in 10.0 mi South 17.3 mph 27.6 mph N/A   Clear
1:35 PM 83.7 °F 42.8 °F 24% 29.80 in 10.0 mi South 23.0 mph 31.1 mph N/A   Clear
1:55 PM 83.1 °F 42.4 °F 24% 29.79 in 10.0 mi South 20.7 mph 26.5 mph N/A   Clear
2:15 PM 84.2 °F 42.4 °F 23% 29.78 in 10.0 mi South 25.3 mph 32.2 mph N/A   Clear
2:35 PM 83.7 °F 42.6 °F 23% 29.78 in 10.0 mi South 19.6 mph 28.8 mph N/A   Clear
2:55 PM 84.2 °F 42.3 °F 23% 29.77 in 10.0 mi South 24.2 mph 28.8 mph N/A   Clear
3:15 PM 84.2 °F 42.3 °F 23% 29.77 in 10.0 mi South 20.7 mph 32.2 mph N/A   Clear
3:35 PM 84.2 °F 42.8 °F 23% 29.76 in 10.0 mi SSE 18.4 mph 26.5 mph N/A   Clear
3:55 PM 83.7 °F 42.8 °F 24% 29.76 in 10.0 mi South 19.6 mph 31.1 mph N/A   Clear
4:15 PM 83.5 °F 42.4 °F 23% 29.76 in 10.0 mi South 24.2 mph 31.1 mph N/A   Clear
4:35 PM 83.3 °F 43.0 °F 24% 29.75 in 10.0 mi South 20.7 mph 31.1 mph N/A   Clear
4:55 PM 83.5 °F 43.2 °F 24% 29.75 in 10.0 mi South 21.9 mph 28.8 mph N/A   Clear
5:15 PM 82.8 °F 43.7 °F 25% 29.74 in 10.0 mi South 21.9 mph 25.3 mph N/A   Clear
5:35 PM 82.0 °F 43.3 °F 25% 29.74 in 10.0 mi SSE 18.4 mph 28.8 mph N/A   Clear
5:55 PM 81.0 °F 42.6 °F 26% 29.74 in 10.0 mi SSE 20.7 mph 27.6 mph N/A   Clear
6:15 PM 80.1 °F 43.3 °F 27% 29.74 in 10.0 mi SSE 17.3 mph 24.2 mph N/A   Clear
6:35 PM 79.0 °F 42.8 °F 28% 29.74 in 10.0 mi South 17.3 mph 27.6 mph N/A   Clear
6:55 PM 77.4 °F 43.2 °F 30% 29.74 in 10.0 mi SSE 13.8 mph 24.2 mph N/A   Clear
7:15 PM 74.8 °F 44.6 °F 34% 29.74 in 10.0 mi SSE 10.4 mph - N/A   Clear
7:35 PM 73.2 °F 45.1 °F 37% 29.75 in 10.0 mi SSE 12.7 mph - N/A   Clear
7:55 PM 72.1 °F 45.3 °F 38% 29.76 in 10.0 mi SSE 12.7 mph - N/A   Clear
8:15 PM 70.9 °F 45.0 °F 39% 29.76 in 10.0 mi SSE 11.5 mph - N/A   Clear
8:35 PM 70.0 °F 45.5 °F 41% 29.77 in 10.0 mi SSE 12.7 mph - N/A   Clear
8:55 PM 69.4 °F 45.7 °F 42% 29.77 in 10.0 mi SSE 13.8 mph - N/A   Clear
9:15 PM 68.2 °F 46.4 °F 46% 29.77 in 10.0 mi SSE 11.5 mph - N/A   Clear
9:35 PM 66.4 °F 47.1 °F 50% 29.78 in 10.0 mi SSE 10.4 mph - N/A   Clear
9:55 PM 66.2 °F 47.5 °F 51% 29.78 in 10.0 mi SSE 13.8 mph - N/A   Clear
10:15 PM 66.2 °F 47.8 °F 52% 29.78 in 10.0 mi SSE 12.7 mph 18.4 mph N/A   Clear
10:35 PM 66.0 °F 48.2 °F 53% 29.78 in 10.0 mi SSE 16.1 mph 21.9 mph N/A   Clear
10:55 PM 65.8 °F 48.6 °F 54% 29.78 in 10.0 mi SSE 13.8 mph 19.6 mph N/A   Clear
11:15 PM 65.5 °F 48.7 °F 55% 29.79 in 10.0 mi SSE 15.0 mph 20.7 mph N/A   Clear
11:35 PM 64.8 °F 48.7 °F 56% 29.80 in 10.0 mi SSE 12.7 mph - N/A   Clear
11:55 PM 64.4 °F 48.6 °F 56% 29.79 in 10.0 mi SSE 15.0 mph 19.6 mph N/A   Clear